{"data":{"norad_id":69944,"epoch":"2026-09-19T02:59:11.533056Z","epoch_age_seconds":136615,"freshness":"FRESH","line1":"1 69944U 26157B   26262.12443904  .00017125  00000+0  51705-3 0  9994","line2":"2 69944  53.1580 340.0175 0001165  90.9760 269.1377 15.34384990 11160","mean_motion":15.3438499,"eccentricity":0.0001165,"inclination_deg":53.158,"raan_deg":340.0175,"arg_perigee_deg":90.976,"mean_anomaly_deg":269.1377,"bstar":0.00051705,"rev_number":1116,"period_min":93.848676139617,"perigee_km":461.95089036858,"apogee_km":463.54481653943,"semimajor_km":6840.884853454,"source":"CELESTRAK","updated_at":"2026-09-20T09:00:44.298909Z"}}